Погода в Засекове

Россия / Удмуртская Республика     57°51′09″N   52°25′50″E
темп.,
°C
ветер,
м/с
пор.,
м/с
влажн.,
%
обл.,
%
осадки,
мм/ч
давл.,
гПа
погр.,
м
17 мая, вт
вт1701:00+9з1284100 0.8 99719
04:00+8зюз2289100 0.8 99751
07:00+9з2392100 0.1 997119
10:00+10зюз2387100 0.6 998199
13:00+13св327491 1.4 998832
16:00+12с117299 2.5 998639
19:00+10ссв348493 0.6 999390
22:00+8ссв3695100 0.7 1000232
18 мая, ср
ср1801:00+8св3795100 0.1 999327
04:00+8св5893100 0.1 999641
07:00+5ссв5995100 2.6 1000495
10:00+4ссв5796100 9.2 1001495
13:00+3ссв4697100 5.1 1002501
16:00+3ссв4898100 6.8 1003412
19:00+4с3797100 0.1 1004470
22:00+4с0198100 0.1 100497
19 мая, чт
чт1901:00+4зсз2294100 0.0 100475
04:00+2сз3691100 0.1 1005156
07:00+4зсз4683100 0.0 1006431
10:00+6з4570100 0.3 10061206
13:00+7з5667100 0.6 10061417
16:00+7зсз5666100 1.4 10071413
19:00+6зсз467890 0.4 1007762
22:00+2зсз35917 0.5 100885
20 мая, пт
пт2001:000зсз35955 0.0 100897
04:000зсз249689 0.0 100870
07:00+4зсз358524 0.0 1008419
10:00+7сз566278 0.4 10071403
13:00+7ссз676399 0.6 10071513
16:00+4ссз6884100 0.9 1009820
19:00+3ссз61297100 0.6 1009592
22:00+2ссз61197100 1.2 1009677
21 мая, сб
сб2101:00+2ссз2698100 1.8 1008415
04:00+2сз489694 2.1 1008312
07:00+2ссз4687100 0.0 1008361
10:00+5ссз5674100 0.1 10081047
13:00+5ссз5669100 0.2 10081216
16:00+6ссз5662100 0.3 10081354
19:00+6ссз3463100 0.1 10081115
22:00+2с228181 0.1 100812